Location: *
(58.7167°N, 26.1833°E)
Time: 23:23:37
(UTC+00:00)

Cosmos 2219 Rocket - Pass Details

Date: 25 August 2019
Orbit: 829 x 845 km, 71.0° (Epoch: 17 October)

Event Time Altitude Azimuth Distance (km) Brightness Sun altitude
Rises 21:38:00 0° 322° (NW) 3,389 6.4 -20.2°
Reaches altitude 10° 21:40:27 10° 320° (NW) 2,450 5.5 -20.3°
Maximum altitude 21:46:02 72° 237° (WSW) 876 2.1 -20.4°
Enters shadow 21:48:00 41° 165° (SSE) 1,191 2.5 -20.4°
